Lid_Strength_Index
3 3 2 2 2 2 2 2 2 1 1 1 1 1 1 1 1 4 7 5 4 1 1 6 7 7 6 6 6 6 12 12 10 10 9 7 8 6 5 7 6 6 5 3 3
2 2 3 3 2 2 2 2 2 1 1 1 1 1 1 1 4 6 2 -0 -0 -1 6 8 8 8 10 8 7 9 12 11 7 7 8 7 7 5 6 7 6 6 3 2 2
2 2 2 2 3 3 3 2 2 2 2 1 1 1 1 1 5 5 -1 -1 -1 0 5 6 7 9 11 10 9 8 11 8 7 6 5 6 6 5 7 7 6 6 5 3 3
2 2 2 2 2 2 2 3 2 2 1 1 2 1 1 3 10 5 -2 -2 -2 1 4 6 8 10 11 11 9 11 8 7 6 5 6 7 6 6 6 6 4 4 4 4 3
2 2 2 2 3 3 2 2 2 2 2 2 2 1 3 5 6 1 -2 -1 1 3 4 6 9 10 11 9 8 10 10 9 8 6 6 5 7 7 6 5 4 3 3 4 4
3 2 2 2 2 3 2 2 2 2 2 2 1 1 4 8 5 3 2 3 3 5 6 7 9 8 10 11 11 9 8 8 8 9 8 7 6 6 6 4 4 4 4 4 5
2 3 3 2 2 2 2 2 2 2 2 1 1 2 5 6 4 4 4 6 5 4 6 6 6 8 9 10 9 9 12 10 8 7 8 8 10 8 5 4 5 5 4 4 4
3 3 3 3 3 2 2 2 2 2 1 0 0 3 6 3 5 5 6 5 4 4 5 5 5 8 10 9 10 12 12 15 11 8 7 8 11 8 6 6 6 5 5 4 4
3 3 3 3 3 2 2 2 2 1 1 0 3 5 7 3 5 5 6 6 5 5 5 4 6 9 9 12 14 13 15 14 12 9 9 9 10 7 6 6 6 5 5 4 4
3 3 3 3 3 2 2 2 2 1 1 1 2 6 5 6 5 5 5 4 6 6 6 7 10 11 12 13 17 15 14 13 13 11 9 10 10 9 7 6 6 5 5 4 4
3 3 3 3 3 2 3 5 5 6 4 6 5 5 5 5 4 6 4 5 6 7 11 9 12 14 12 11 10 11 12 13 11 9 10 11 11 10 8 9 8 6 5 5 5
3 3 3 3 3 3 5 6 6 6 9 5 5 5 5 5 7 5 4 7 8 11 10 11 13 10 9 9 10 11 12 13 11 9 10 11 11 10 9 9 8 8 7 5 5
3 3 3 3 4 5 6 4 3 4 9 6 5 6 6 6 8 7 5 7 9 11 11 13 11 8 9 10 11 12 13 13 12 10 10 11 13 11 9 8 8 7 6 5 5
3 3 3 4 6 5 5 4 3 4 12 9 8 7 6 6 8 4 4 7 9 11 11 12 9 9 10 11 10 13 9 10 11 13 16 11 17 13 11 10 9 8 7 6 5
3 3 3 4 6 6 5 4 4 5 19 8 8 5 6 8 7 7 5 7 10 10 11 12 11 11 11 10 8 11 8 9 10 12 15 14 16 15 12 12 10 9 7 6 6
3 3 3 4 5 4 4 4 4 13 18 11 8 8 9 8 7 6 7 6 7 10 10 10 8 8 8 7 7 7 9 9 10 13 17 14 13 15 13 12 10 8 7 7 6
3 3 4 4 6 4 4 5 13 17 8 10 10 9 9 9 8 8 8 9 11 13 13 9 9 7 7 9 8 9 12 18 19 18 17 11 13 13 11 9 9 9 8 6 6
4 4 3 3 3 4 6 10 17 11 10 8 8 9 10 8 9 8 9 10 8 10 12 13 15 9 7 9 11 11 12 18 21 19 16 11 15 12 8 6 6 6 6 6 7
4 3 3 2 2 4 8 15 14 11 9 10 9 10 10 8 9 9 10 10 8 8 12 13 13 7 7 7 8 11 13 10 14 13 17 15 12 9 8 8 8 8 7 7 7
6 4 3 3 3 5 10 12 10 8 8 8 11 10 12 10 10 10 10 7 8 7 8 10 14 8 7 7 7 9 9 15 15 21 21 16 14 14 12 11 9 9 8 8 7
5 6 3 2 3 7 13 11 9 7 8 9 10 10 10 11 10 10 10 8 7 8 8 10 12 12 9 11 11 12 13 13 14 16 20 20 16 11 11 10 10 9 8 8 7
5 9 3 3 9 8 10 8 7 8 6 7 7 8 10 9 10 10 10 8 6 7 10 9 12 15 12 8 8 10 12 13 17 18 16 18 16 9 9 8 8 8 7 7 6
7 6 2 3 11 11 8 7 6 7 8 8 8 7 8 10 12 10 9 6 6 8 10 10 13 17 15 12 10 12 11 11 12 13 17 18 16 7 8 8 8 8 7 7 6
6 9 6 6 7 9 10 9 9 5 7 7 8 7 8 10 9 11 10 7 6 7 6 8 12 15 18 14 12 13 11 10 12 16 15 15 13 11 10 9 8 8 8 8 8
6 8 8 11 10 9 9 8 9 9 6 7 8 8 10 12 11 11 9 8 7 6 8 10 15 13 12 11 11 11 11 11 12 12 15 13 14 11 10 9 8 8 8 8 8
9 9 8 10 8 8 8 9 9 8 8 9 10 8 9 11 11 11 10 10 11 8 10 9 14 13 14 11 11 12 10 10 10 10 11 11 12 9 8 7 7 7 7 7 7
7 6 8 9 9 11 11 10 9 8 7 7 9 9 10 9 7 7 7 7 8 9 10 11 13 15 17 12 12 15 13 12 11 10 11 14 11 8 9 8 8 7 6 7 6